Other Public Products
Issued by NWS Grand Forks, ND

Home | Current Version | Previous Version | Text Only | Print | Product List | Glossary On
Versions: 1 2 3 4 5 6 7 8 9 10 11 12 13 14 15 16 17 18 19 20 21 22 23 24 25 26 27 28 29 30 31 32 33 34 35 36 37 38 39 40 41 42 43 44 45 46 47 48 49 50
000
FPUS83 KFGF 061731
OPUFGF
PRAIRIE TO PINES WEATHER ROUNDUP
NATIONAL WEATHER SERVICE EASTERN NORTH DAKOTA/GRAND FORKS ND
1100 AM CST TUE DEC 06 2016

 **SATELLITE DATA USED TO AUGMENT SKY COVER AT AUTOMATED STATIONS**
 *****  WEATHER ACROSS EASTERN NORTH DAKOTA  *****

CITY           SKY/WX    TMP DP  RH WIND       PRES   REMARKS
GRAND FORKS    LGT SNOW  26  22  84 N23       29.34R VSB 3/4 WCI  11
GRAND FORKS AF LGT SNOW  27  24  91 NW25G40   29.36R VSB 3/4 WCI  11
GRAND CITY NWS   N/A     25 N/A N/A N12         N/A  WCI  14
BUXTON           N/A     42  42  99 W32G51      N/A
DEVILS LAKE    SNOW      18  16  93 NW31G39   29.54R VSB 1/2 WCI  -2
FARGO          SNOW      22  18  85 W36G47    29.44R VSB 1/4 WCI   3
WAHPETON ARPT  CLOUDY    21  16  79 W33G46    29.56R WCI   2
$$

 *****  WEATHER ACROSS CENTRAL AND WESTERN NORTH DAKOTA  *****

CITY           SKY/WX    TMP DP  RH WIND       PRES   REMARKS
JAMESTOWN      SNOW      14  11  87 NW45G56   29.60R VSB 1/4 WCI -10
BISMARCK       LGT SNOW   9   6  88 NW24G38   29.87R VSB 1   WCI -12
MINOT          SNOW      10   6  84 W36G47    29.83R VSB 1/4 WCI -14
MINOT AFB      SNOW       9   5  85 NW38G47   29.81R VSB<1/4 WCI -16
GARRISON         N/A      7   4  87 MISG      29.84R
WILLISTON      CLOUDY     5  -2  72 NW22      30.04R WCI -16
DICKINSON      MIX PCPN   1  -5  75 NW29G39   29.94R VSB 3/4 WCI -24
HETTINGER      CLOUDY     4  -2  76 NW33G39   29.96R HAZE    WCI -22
$$

 *****  OTHER OBSERVATIONS NORTHEAST NORTH DAKOTA  *****

CITY           SKY/WX    TMP DP  RH WIND       PRES   REMARKS
WALHALLA       HVY SNOW  25  25 100 NW35G44   29.43R VSB 1/4 WCI   7
LANGDON        SNOW      23  21  93 NW36G51   29.45R VSB<1/4 WCI   4
CAVALIER       LGT SNOW  28  27  93 N30G43    29.39R VSB 3/4 WCI  13
GRAFTON        FOG       25  25 100 N14       29.39R VSB 1   WCI  13
CANDO          SNOW      19  18  93 NW35G46   29.60R VSB 1/2 WCI  -1
FORT TOTTEN      N/A     17  17  98 NW17      29.95S WCI   1
ROLLA          HVY SNOW  14  14 100 NW40G52   29.60R VSB<1/4 WCI  -9
RUGBY          HVY SNOW  12  10  92 NW39G49   29.67R VSB<1/4 WCI -12
 ***** THE ABOVE OBSERVATIONS ARE NON NWS ARE NOT QUALITY
        CONTROLLED AND MAY MIS-REPORT RAIN FOR SNOW...
$$

 *****  OTHER OBSERVATIONS SOUTHEAST NORTH DAKOTA *****

CITY           SKY/WX    TMP DP  RH WIND       PRES   REMARKS
COOPERSTOWN    SNOW      18  16  93 W36G52    29.50R VSB<1/4 WCI  -3
VALLEY CITY    HVY SNOW  16  16 100 NW38G51   29.55R VSB 1/4 WCI  -6
OAKES          NOT AVBL
GWINNER        NOT AVBL
SHEYENNE NWR     N/A     19  12  75 NW28      29.95S WCI   1
BUFFALO          N/A     18  15  90 N36G51      N/A  WCI  -3
WYNDMERE         N/A     19  16  86 W26         N/A  WCI   1
 ***** THE ABOVE OBSERVATIONS ARE NON NWS ARE NOT QUALITY
       CONTROLLED AND MAY MIS-REPORT RAIN FOR SNOW...
$$

  *****  WEATHER ACROSS NORTHERN MINNESOTA  *****

CITY           SKY/WX    TMP DP  RH WIND       PRES   REMARKS
FLAG ISLAND    CLOUDY    25  19  80 SE15      29.38F WCI  12
WARROAD        CLOUDY    23  19  86 SE13G18   29.38S WCI  11
ROSEAU         CLOUDY    25  19  80 E9        29.37S WCI  15
HALLOCK        LGT SNOW  25  21  86 NE6       29.37S VSB 1   WCI  18
THF RVR FALLS  LGT SNOW  23  21  93 E13       29.27S FOG     WCI  11
HALSTAD          N/A     24  23  94 NW32        N/A  WCI   7
FOSSTON        LGT SNOW  27  25  93 SW15      29.26F WCI  15
BAUDETTE       LGT SNOW  22  17  81 S12       29.39S WCI  10
WASKISH        FLURRIES  21  18  86 SE17G23   29.37F WCI   7
CROOKSTON      LGT SNOW  27  25  93 NW29G35   29.26R VSB 1   WCI  11
$$
  *****  WEATHER ACROSS CENTRAL AND WEST MINNESOTA  *****

CITY           SKY/WX    TMP DP  RH WIND       PRES   REMARKS
BEMIDJI        CLOUDY    20  16  82 S14G25    29.34F FOG     WCI   7
PARK RAPIDS    LGT SNOW  23  17  78 SW20G28   29.38F VSB 1   WCI   8
WADENA         LGT SNOW  21  18  86 SW18G28   29.45R VSB 3/4 WCI   6
DETROIT LAKES  LGT SNOW  23  21  93 W20G30    29.40S VSB 3/4 WCI   8
MOORHEAD       LGT RAIN  21  18  86 W32G44    29.45R VSB 1/2 WCI   2
FERGUS FALLS   LGT SNOW  19  18  93 W29G40    29.57R VSB 1   WCI   1
ELBOW LAKE     SNOW      19  17  93 NW30G43   29.57S VSB 1/2 WCI   0
MORRIS MN      LGT SNOW  21  16  79 W29G39    29.62R WCI   3
STAPLES        CLOUDY    21  18  86 SW23G30   29.48F FOG     WCI   5
WHEATON        LGT SNOW  21  18  86 W23G35    29.64S VSB 1   WCI   5
$$
  *****  WEATHER ELSEWHERE ACROSS MINNESOTA  *****

CITY           SKY/WX    TMP DP  RH WIND       PRES   REMARKS
DULUTH         FLURRIES  23  16  74 SW24G32   29.52F WCI   7
INTRNTL FALLS  CLOUDY    24  18  77 VRB7      29.43F WCI  16
ELY            CLOUDY    27  19  74 SW17G23   29.46F WCI  14
CLOQUET        LGT SNOW  21  16  79 S13G22    29.53F WCI   9
BRAINERD       LGT SNOW  20  14  77 S21G31    29.52F WCI   4
HIBBING        LGT SNOW  20  14  77 S7G22     29.47F WCI  11
ALEXANDRIA     LGT SNOW  21  17  84 W24G37    29.55R VSB 3/4 WCI   4
SAINT CLOUD    FLURRIES  20  13  74 SW23G30   29.64F WCI   3
MINNEAPOLIS    CLOUDY    21   9  59 W18G36    29.73F WCI   6
$$

  *****  WEATHER ACROSS SOUTH DAKOTA  *****

CITY           SKY/WX    TMP DP  RH WIND       PRES   REMARKS
SIOUX FALLS    FLURRIES  21  10  62 W25G39    29.88R WCI   4
BROOKINGS      FLURRIES  16   9  74 W29G38    29.79R WCI  -4
WATERTOWN      LGT SNOW  15   9  76 W33G45    29.73S VSB 1   WCI  -6
HURON          MOSUNNY   18   7  62 W35G45    29.90R WCI  -3
SISSETON         N/A     19  13  77 NW30G40   29.63R WCI   0
ABERDEEN       FLURRIES  16   6  65 W26G47    29.78R WCI  -3
MITCHELL       CLOUDY    20  10  65 W29G38    29.95R WCI   1
PIERRE         PTSUNNY   12   4  70 NW30G40   29.98R WCI -10
MOBRIDGE       SNOW      11   3  70 NW29G49   29.88R VSB 1/2 WCI -11
RAPID CITY     SUNNY     18   2  49 N17       29.98R WCI   3
$$

  *****  SOME WEATHER IN NEARBY STATES *****

CITY           SKY/WX    TMP DP  RH WIND       PRES   REMARKS
GLASGOW MT     SUNNY      0  -8  69 NW30      30.16R WCI -26
GREAT FALLS MT CLOUDY     0  -6  76 N8        30.16R WCI -14
CHEYENNE WY    SUNNY     19 -17  19 W8        29.89S WCI   9
SCOTTSBLUFF NE SUNNY     20   5  52 NW8       30.01S WCI  10
OMAHA NE       SUNNY     29  13  51 NW21      30.04R WCI  16
DES MOINES IA  MOSUNNY   29  14  53 W22       29.97R WCI  15
DAVENPORT IA   CLOUDY    33  28  81 W22G30    29.86R WCI  21
CHICAGO IL     PTSUNNY   39  34  82 NW5       29.74F HAZE
EAU CLAIRE WI  CLOUDY    25  20  81 SW20G26   29.71S WCI  11
LA CROSSE WI   PTSUNNY   31  24  75 W13       29.78R WCI  21
$$

  *****  SOME NATIONAL WEATHER *****

CITY           SKY/WX    TMP DP  RH WIND       PRES   REMARKS
LA GUARDIA NY  CLOUDY    46  32  58 NE10      30.08F
RALEIGH NC     LGT RAIN  47  46  97 N7        29.82F VSB 1
ATLANTA GA     CLOUDY    55  54  96 E6        29.74F
NEW ORLEANS LA CLOUDY    57  54  89 W8        29.95S
OKLAHOMA CITY  CLOUDY    38  22  52 N22       30.10R
ALBUQUERQUE NM CLOUDY    41  21  44 CALM      29.96R
SALT LAKE CITY PTSUNNY   29   9  43 S5        29.85F WCI  24
LOS ANGELES CA PTSUNNY   60  51  72 E5        30.01R
BOISE ID       LGT SNOW  23  21  92 SE6       29.91R VSB 1   WCI  16
SEATTLE WA     PTCLDY    33  31  92 NE6       30.12R
$$

*** WEATHER ACROSS MANITOBA...SASKATCHEWAN AND ONTARIO ***
                ***ONTARIO***

CITY           SKY/WX    TMP DP  RH WIND       PRES   REMARKS
GERALDTON      FLURRIES  32  32 100 E12       29.70F WCI  23
THUNDER BAY    LGT RAIN  36  32  87 S9G21     29.57F
SIOUX LOOKOUT  LGT SNOW  32  32 100 SE8       29.40F VSB 3/4 WCI  25
TORONTO        PTSUNNY   41  34  75 E20G29    29.91F
BIG TROUT LK   CLOUDY    21  19  93 E10       29.85F WCI  10
PICKLE LAKE    SNOW      27  25  93 E16G24    29.56F VSB 3/8 WCI  14
DRYDEN         LGT SNOW  30  28  93 SW10      29.39F WCI  21
KENORA         FRZ DRZL  27  23  86 S8        29.39S WCI  18
$$
                *** MANITOBA***

CITY           SKY/WX    TMP DP  RH WIND       PRES   REMARKS
BRANDON        FLURRIES  21  16  79 NW25G33   29.69F WCI   4
DAUPHIN        LGT SNOW  18  16  93 N20       29.81S WCI   1
ISLAND LAKE    CLOUDY    25  23  93 NE12      29.80F WCI  14
PILOT MOUND      N/A     21  19  93 NW29G40     N/A  WCI   3
THE PAS        LGT SNOW  16  10  79 NW16      29.97S WCI   0
THOMPSON       FLURRIES  19  16  86 NE6       29.95S WCI  11
WINNIPEG       SNOW      28  27  93 N29G41    29.42R VSB 1/2 WCI  13
LYNN LAKE      LGT SNOW  18  16  93 NE7       29.96S WCI   8
CHURCHILL      FLURRIES  25  25 100 N21G32    29.99R WCI  10
GILLAM         FLURRIES  21  18  86 NE6       29.96F WCI  14
$$
                ***SASKATCHEWAN***

CITY           SKY/WX    TMP DP  RH WIND       PRES   REMARKS
ESTEVAN        SNOW       5   1  85 NW30G37   29.95R VSB 1/4 WCI -19
KINDERSLEY     CRYSTALS  -4 -11  71 NW14G22   30.19R WCI -24
LLOYDMINSTER   LGT SNOW  -2  -9  71 NW17G26   30.20S DRFTSNOWWCI -24
PRINCE ALBERT  FLURRIES   5  -2  72 NW12      30.10S WCI -11
REGINA         LGT SNOW   3  -2  78 NW24G32   30.05R BLWGSNOWWCI -20
YORKTON        FLURRIES   9   5  85 NW18G25   29.93R WC1F1C2F2C3F3C4F4C5F5C6F6C7F7C8F8C9F9CaFaCbFbCcFcCdFdCe!



USA.gov is the U.S. government's official web portal to all federal, state and local government web resources and services.